Weather Roundup
Issued by NWS

Home | Current Version | Previous Version | Graphics & Text | Print | Product List | Glossary Off
Versions: 1 2 3 4 5 6 7 8 9 10 11 12 13 14 15 16 17 18 19 20 21 22 23 24 25 26 27 28 29 30 31 32 33 34 35 36 37 38 39 40 41 42 43 44 45 46 47 48 49 50

067
NZUS93 KARX 020359
HRRWXR

CURRENT HOURLY OBSERVATIONS ACROSS
MUCH OF THE UPPER MISSISSIPPI VALLEY
NATIONAL WEATHER SERVICE LA CROSSE WI
1000 PM CST THU DEC 01 2016


...SOUTHEAST MINNESOTA...


CITY           SKY/WX    TMP DP  RH WIND       PRES   REMARKS
ROCHESTER      CLOUDY    34  31  88 W9        29.97R WCI  27
ROCHESTER/MAYO CLOUDY    35  32  87 W8        29.97S WCI  29
WINONA         CLOUDY    36  32  87 W3        29.97S
AUSTIN         MIX PCPN  34  30  86 W7        29.98S WCI  28
ALBERT LEA     CLOUDY    37  36  93 W6        29.99S WCI  33
DODGE CENTER   CLOUDY    34  30  86 W7        29.97R WCI  28
PRESTON        CLOUDY    33  31  93 W10       29.97R WCI  25
OWATONNA       CLOUDY    34  32  93 W7        29.99R WCI  28
FARIBAULT      CLOUDY    36  28  75 NW6       29.99R WCI  31
$$

...ELSEWHERE IN MINNESOTA...


CITY           SKY/WX    TMP DP  RH WIND       PRES   REMARKS
MINNEAPOLIS    CLOUDY    34  23  64 N6        30.00R WCI  29
INTNL FALLS    CLOUDY    26  21  81 N8        29.99R WCI  18
DULUTH         CLOUDY    28  22  78 NW10      29.94R WCI  19
RED WING       CLOUDY    36  25  64 NW7       29.98R WCI  30
REDWOOD FALLS  CLOUDY    32  25  75 NW7G17    30.03R WCI  26
MANKATO        LGT RAIN  33  31  92 NW9       30.01R WCI  25
WORTHINGTON    CLOUDY    32  29  88 N7        30.02R WCI  26
FAIRMONT       CLOUDY    33  29  85 NW9       30.02S WCI  25
$$

...SOUTHWEST WISCONSIN...


CITY           SKY/WX    TMP DP  RH WIND       PRES   REMARKS
LA CROSSE      CLOUDY    38  34  85 NW8       29.96S WCI  32
PRAIRIE DU CHI CLOUDY    37  32  84 W6        29.99R WCI  32
BOSCOBEL       CLOUDY    37  33  85 SW5       29.98S WCI  33
LONE ROCK      NOT AVBL
PLATTEVILLE    CLOUDY    35  35  99 W8        29.97S WCI  28
FORT MC COY    CLOUDY    35  32  88 W5        29.95S WCI  31
CAMP DOUGLAS   CLOUDY    34  32  93 W7        29.93S WCI  28
MAUSTON-NEW LI CLOUDY    35  32  88 NW6       29.93R WCI  30
VIROQUA        CLOUDY    33  33 100 W7        29.94R WCI  27
WIS DELLS      CLOUDY    35  32  90 W6        29.92S WCI  30
$$

...ELSEWHERE IN WISCONSIN...


CITY           SKY/WX    TMP DP  RH WIND       PRES   REMARKS
MILWAUKEE      MOCLDY    38  31  76 SW10      29.93R WCI  31
MADISON        CLOUDY    36  31  82 VRB6      29.94R WCI  31
GREEN BAY      CLOUDY    37  27  67 NW12      29.90R WCI  29
EAU CLAIRE     NOT AVBL
BLACK RVR FLS  CLOUDY    35  26  69 NW6       29.95R WCI  30
MEDFORD        CLOUDY    30  23  75 NW10      29.90R WCI  21
WAUSAU         CLOUDY    32  24  72 NW9       29.89S WCI  24
WIS RAPIDS     CLOUDY    33  25  72 NW9       29.94R WCI  25
MARSHFIELD     CLOUDY    32  25  75 NW9       29.91R WCI  24
RICE LAKE      CLOUDY    31  24  75 N7        29.97S WCI  25
$$

...NORTHEAST IOWA...


CITY           SKY/WX    TMP DP  RH WIND       PRES   REMARKS
WATERLOO       CLOUDY    36  31  82 W7        30.01R WCI  30
DUBUQUE        CLOUDY    35  32  88 W9        29.98S WCI  28
DECORAH        CLOUDY    36  34  93 CALM      29.97S
MASON CITY     CLOUDY    34  32  92 W8        30.02R WCI  27
CHARLES CITY   MIX PCPN  34  34 100 NW9       30.00S WCI  26
OELWEIN        CLOUDY    36  34  93 W10       30.00R WCI  28
$$

...ELSEWHERE IN IOWA...


CITY           SKY/WX    TMP DP  RH WIND       PRES   REMARKS
DES MOINES     FLURRIES  37  29  72 NW7       30.05S WCI  32
IOWA CITY      CLOUDY    37  31  78 W9        30.05R WCI  30
FORT DODGE     CLOUDY    34  28  80 W3        30.04S
MARSHALLTOWN   CLOUDY    35  33  92 W7        30.03R WCI  29
CEDAR RAPIDS   CLOUDY    35  34  96 W9        30.01S WCI  28
$$

...NORTHERN ILLINOIS...


CITY           SKY/WX    TMP DP  RH WIND       PRES   REMARKS
CHICAGO-OHARE  CLOUDY    37  32  82 W12       29.97S WCI  29
CHICAGO-MIDWAY CLOUDY    38  32  79 W9        29.99S WCI  31
MOLINE         CLOUDY    38  30  73 W8        30.02S WCI  32
ROCKFORD       DRIZZLE   36  32  85 NW10      30.00S WCI  28
PEORIA         CLOUDY    37  30  75 SW7       30.05S WCI  32
$$

NOTE: "FAIR" INDICATES FEW OR NO CLOUDS BELOW 12,000 FEET WITH NO
SIGNIFICANT WEATHER AND/OR OBSTRUCTIONS TO VISIBILITY. WIND
SPEEDS ARE IN MILES-PER-HOUR.




USA.gov is the U.S. government's official web portal to all federal, state and local government web resources and services.